Latest Coastal Weather Observations for Marion Reef

IDQ60701

Issued at 6:15 pm EST Monday 1 September 2014 (issued every 10 minutes, with the page automatically refreshed every 10 minutes)

About coastal observations | Map of coastal stations | Coastal observations for QLD | Marine services | Other Formats
Station Details ID: 200704 Name: MARION REEF Lat: -19.10 Lon: 152.39 Height: 2.0 m
Data from the previous 72 hours. | See also: Recent months for locations in Queensland
Date/Time
EST
Temp

°C
Wind Pressure Rain
since 9am
mm
Weather Cloud Vis
km
Sea
Height
m
Swell
Dir
 
Speed
knots
Gust
knots
hPa Trend Height
m
Period
s
Dir
01/06:00pm 22.5 E 10 14 1016.5 - - - - - - - - -
01/05:30pm 22.6 ESE 10 13 1016.3 - - - - - - - - -
01/05:00pm 22.6 ESE 12 15 1016.1 - - - - - - - - -
01/04:30pm 22.6 ESE 12 15 1015.7 - - - - - - - - -
01/04:00pm 22.6 ESE 13 16 1015.5 - - - - - - - - -
01/03:30pm 22.7 SE 12 14 1015.5 - - - - - - - - -
01/03:00pm 22.8 SE 12 16 1015.5 - - - - - - - - -
01/02:30pm 22.4 E 13 16 1015.1 - - - - - - - - -
01/02:00pm 22.5 ESE 13 17 1015.1 - - - - - - - - -
01/01:30pm 22.7 ESE 15 19 1015.3 - - - - - - - - -
01/01:00pm 22.6 ESE 13 14 1015.9 - - - - - - - - -
01/12:30pm 22.5 ESE 11 14 1016.8 - - - - - - - - -
01/12:00pm 22.3 SE 12 13 1017.6 - - - - - - - - -
01/11:30am 22.2 SE 12 15 1018.0 - - - - - - - - -
01/11:00am 22.1 ESE 12 14 1018.0 - - - - - - - - -
01/10:30am 22.1 ESE 12 16 1017.9 - - - - - - - - -
01/10:00am 22.1 ESE 13 17 1018.0 - - - - - - - - -
01/09:30am 22.2 ESE 14 17 1018.4 - - - - - - - - -
01/09:00am 22.2 ESE 14 17 1018.5 - - - - - - - - -
01/08:30am 22.1 SE 14 17 1018.6 - - - - - - - - -
01/08:00am 22.0 SE 14 17 1018.4 - - - - - - - - -
01/07:30am 21.9 SE 12 14 1018.1 - - - - - - - - -
01/07:00am 21.8 SE 12 17 1017.7 - - - - - - - - -
01/06:30am 21.6 SE 14 17 1017.3 - - - - - - - - -
01/06:00am 21.5 SE 13 17 1016.9 - - - - - - - - -
01/05:30am 21.6 SE 12 15 1016.7 - - - - - - - - -
01/05:00am 21.6 SE 13 17 1016.2 - - - - - - - - -
01/04:30am 21.6 SE 13 16 1016.1 - - - - - - - - -
01/04:00am 21.7 SE 14 17 1016.0 - - - - - - - - -
01/03:30am 21.5 SE 13 16 1016.0 - - - - - - - - -
01/03:00am 21.6 SE 14 17 1015.8 - - - - - - - - -
01/02:30am 21.5 SE 13 16 1016.0 - - - - - - - - -
01/02:00am 21.6 SE 14 16 1016.2 - - - - - - - - -
01/01:30am 21.6 SE 14 16 1016.6 - - - - - - - - -
01/01:00am 21.7 ESE 13 17 1016.5 - - - - - - - - -
01/12:30am 21.8 ESE 14 17 1016.9 - - - - - - - - -
01/12:00am 21.8 ESE 15 17 1016.9 - - - - - - - - -
 
Date/Time
EST
Temp

°C
Wind Pressure Rain
since 9am
mm
Weather Cloud Vis
km
Sea
Height
m
Swell
Dir
 
Speed
knots
Gust
knots
hPa Trend Height
m
Period
s
Dir
31/11:30pm 21.7 ESE 15 19 1017.2 - - - - - - - - -
31/11:00pm 21.9 ESE 14 18 1017.1 - - - - - - - - -
31/10:30pm 21.9 ESE 14 17 1017.5 - - - - - - - - -
31/10:00pm 22.1 ESE 16 19 1017.0 - - - - - - - - -
31/09:30pm 21.8 ESE 16 19 1017.0 - - - - - - - - -
31/09:00pm 21.8 SE 17 21 1016.9 - - - - - - - - -
31/08:30pm 22.0 ESE 17 20 1017.0 - - - - - - - - -
31/08:00pm 21.9 ESE 17 22 1016.9 - - - - - - - - -
31/07:30pm 22.1 ESE 16 21 1016.9 - - - - - - - - -
31/07:00pm 21.9 SE 16 19 1016.6 - - - - - - - - -
31/06:30pm 21.9 SE 18 25 1016.0 - - - - - - - - -
31/06:00pm 21.8 SE 18 21 1015.7 - - - - - - - - -
31/05:30pm 21.7 SE 17 23 1015.5 - - - - - - - - -
31/05:00pm 21.9 SE 18 19 1015.3 - - - - - - - - -
31/04:30pm 21.9 SE 18 21 1015.1 - - - - - - - - -
31/04:00pm 21.9 SE 18 21 1014.9 - - - - - - - - -
31/03:30pm 22.0 SE 17 20 1014.8 - - - - - - - - -
31/03:00pm 22.0 SE 17 20 1014.8 - - - - - - - - -
31/02:30pm 22.1 SE 17 20 1014.8 - - - - - - - - -
31/02:00pm 22.1 SE 16 19 1014.7 - - - - - - - - -
31/01:30pm 22.1 SE 17 20 1015.0 - - - - - - - - -
31/01:00pm 22.1 SE 17 19 1015.2 - - - - - - - - -
31/12:30pm 21.9 SE 15 19 1015.8 - - - - - - - - -
31/12:00pm 22.1 SE 16 19 1016.1 - - - - - - - - -
31/11:30am 22.3 SSE 17 20 1016.5 - - - - - - - - -
31/11:00am 22.0 SE 17 19 1016.6 - - - - - - - - -
31/10:30am 22.3 SSE 17 19 1017.0 - - - - - - - - -
31/10:00am 22.2 SSE 17 21 1017.3 - - - - - - - - -
31/09:30am 22.0 SE 16 19 1017.7 - - - - - - - - -
31/09:00am 22.2 SE 17 20 1017.7 - - - - - - - - -
31/08:30am 22.1 SE 16 19 1017.8 - - - - - - - - -
31/08:00am 22.1 SE 16 19 1017.3 - - - - - - - - -
31/07:30am 22.1 SE 17 21 1016.7 - - - - - - - - -
31/07:00am 22.1 SE 17 20 1016.3 - - - - - - - - -
31/06:30am 22.3 SE 16 19 1016.1 - - - - - - - - -
31/06:00am 21.9 SE 15 19 1015.8 - - - - - - - - -
31/05:30am 22.0 SSE 16 18 1015.5 - - - - - - - - -
31/05:00am 22.0 SE 15 17 1015.3 - - - - - - - - -
31/04:30am 21.9 SE 15 17 1015.3 - - - - - - - - -
31/04:00am 22.1 SE 14 17 1015.3 - - - - - - - - -
31/03:30am 21.9 SE 14 16 1015.3 - - - - - - - - -
31/03:00am 22.1 SE 13 17 1015.3 - - - - - - - - -
31/02:30am 22.1 SE 13 16 1015.3 - - - - - - - - -
31/02:00am 22.1 SE 14 16 1015.4 - - - - - - - - -
31/01:30am 22.2 SE 14 17 1015.8 - - - - - - - - -
31/01:00am 22.1 SE 14 16 1016.1 - - - - - - - - -
31/12:30am 22.3 SE 14 16 1016.4 - - - - - - - - -
31/12:00am 22.3 SE 14 17 1016.7 - - - - - - - - -
 
Date/Time
EST
Temp

°C
Wind Pressure Rain
since 9am
mm
Weather Cloud Vis
km
Sea
Height
m
Swell
Dir
 
Speed
knots
Gust
knots
hPa Trend Height
m
Period
s
Dir
30/11:30pm 22.4 SE 14 16 1017.2 - - - - - - - - -
30/11:00pm 22.2 SE 15 18 1017.2 - - - - - - - - -
30/10:30pm 22.2 SE 15 17 1017.7 - - - - - - - - -
30/10:00pm 22.3 SE 15 17 1017.7 - - - - - - - - -
30/09:30pm 22.3 ESE 15 18 1017.9 - - - - - - - - -
30/09:00pm 22.3 ESE 16 19 1017.8 - - - - - - - - -
30/08:30pm 22.5 ESE 15 18 1018.0 - - - - - - - - -
30/08:00pm 22.5 ESE 16 20 1017.9 - - - - - - - - -
30/07:30pm 22.4 ESE 17 20 1017.4 - - - - - - - - -
30/07:00pm 22.4 ESE 19 22 1016.7 - - - - - - - - -
30/06:30pm 22.4 SE 19 23 1016.6 - - - - - - - - -
30/06:00pm 22.5 SE 19 23 1016.2 - - - - - - - - -
30/05:30pm 22.3 ESE 19 22 1015.6 - - - - - - - - -
30/05:00pm 22.4 SE 20 23 1015.5 - - - - - - - - -
30/04:30pm 22.6 SE 19 23 1015.1 - - - - - - - - -
30/04:00pm 22.5 SE 20 22 1014.9 - - - - - - - - -
30/03:30pm 22.5 SE 20 23 1014.7 - - - - - - - - -
30/03:00pm 22.5 SE 19 22 1015.0 - - - - - - - - -
30/02:30pm 22.5 SE 18 21 1015.7 - - - - - - - - -
30/02:00pm 22.6 SE 18 21 1015.6 - - - - - - - - -
30/01:30pm 22.8 SE 17 20 1016.0 - - - - - - - - -
30/01:00pm 22.9 SSE 16 19 1016.3 - - - - - - - - -
30/12:30pm 23.0 SSE 15 20 1016.5 - - - - - - - - -
30/12:00pm 22.8 SE 18 21 1016.2 - - - - - - - - -
30/11:30am 22.6 SE 19 22 1016.9 - - - - - - - - -
30/11:00am 22.5 SE 17 20 1017.3 - - - - - - - - -
30/10:30am 22.4 SE 19 21 1017.3 - - - - - - - - -
30/10:00am 22.5 SE 20 23 1017.2 - - - - - - - - -
30/09:30am 22.2 SE 20 25 1017.5 - - - - - - - - -
30/09:00am 22.2 SE 22 27 1017.5 - - - - - - - - -
30/08:30am 22.3 SE 22 26 1017.5 - - - - - - - - -
30/08:00am 22.4 SE 22 26 1017.4 - - - - - - - - -
30/07:30am 22.4 SE 22 24 1017.5 - - - - - - - - -
30/07:00am 22.3 SE 21 24 1017.3 - - - - - - - - -
30/06:30am 22.1 SE 23 26 1017.2 - - - - - - - - -
30/06:00am 22.2 SSE 22 25 1017.0 - - - - - - - - -
30/05:30am 21.9 SSE 23 27 1017.0 - - - - - - - - -
30/05:00am 21.8 SSE 22 26 1016.6 - - - - - - - - -
30/04:30am 22.0 SSE 23 26 1016.6 - - - - - - - - -
30/04:00am 21.9 SSE 20 25 1016.5 - - - - - - - - -
30/03:30am 22.2 SSE 20 24 1016.5 - - - - - - - - -
30/03:00am 22.3 SSE 21 25 1016.4 - - - - - - - - -
30/02:30am 22.2 SE 21 25 1016.4 - - - - - - - - -
30/02:00am 22.1 SSE 22 26 1016.3 - - - - - - - - -
30/01:30am 22.4 SE 22 25 1016.6 - - - - - - - - -
30/01:00am 22.5 SE 23 27 1016.7 - - - - - - - - -
30/12:30am 22.6 SE 22 26 1016.9 - - - - - - - - -
30/12:00am 22.5 SE 21 25 1017.0 - - - - - - - - -
 
Date/Time
EST
Temp

°C
Wind Pressure Rain
since 9am
mm
Weather Cloud Vis
km
Sea
Height
m
Swell
Dir
 
Speed
knots
Gust
knots
hPa Trend Height
m
Period
s
Dir
29/11:30pm 22.5 SE 23 26 1017.4 - - - - - - - - -
29/11:00pm 22.5 SE 23 26 1017.3 - - - - - - - - -
29/10:30pm 22.8 SE 23 26 1017.5 - - - - - - - - -
29/10:00pm 22.6 SE 21 25 1017.3 - - - - - - - - -
29/09:30pm 22.5 SE 24 27 1017.4 - - - - - - - - -
29/09:00pm 22.9 SE 22 25 1017.2 - - - - - - - - -
29/08:30pm 22.9 SE 21 25 1017.4 - - - - - - - - -
29/08:00pm 22.8 SE 23 26 1017.1 - - - - - - - - -
29/07:30pm 22.7 SE 22 26 1017.1 - - - - - - - - -
29/07:00pm 22.9 SE 22 29 1016.8 - - - - - - - - -
29/06:30pm 22.7 SSE 23 27 1016.6 - - - - - - - - -

Other Formats:

Comma delimited format used in spreadsheet applications
http://www.bom.gov.au/fwo/IDQ60701/IDQ60701.94298.axf

JavaScript Object Notation format (JSON) in row-major order
http://www.bom.gov.au/fwo/IDQ60701/IDQ60701.94298.json